TimeHST,TemperatureF,Dew PointF,Humidity,Sea Level PressureIn,VisibilityMPH,Wind Direction,Wind SpeedMPH,Gust SpeedMPH,PrecipitationIn,Events,Conditions,WindDirDegrees,DateUTC
12:54 AM,64.9,61.0,87,29.93,10.0,SE,5.8,-,N/A,,Clear,140,2014-01-11 10:54:00
1:54 AM,64.9,61.0,87,29.92,10.0,SE,10.4,-,N/A,,Clear,140,2014-01-11 11:54:00
2:54 AM,64.9,62.1,90,29.90,10.0,Calm,Calm,-,N/A,,Clear,0,2014-01-11 12:54:00
3:54 AM,63.0,59.0,87,29.89,10.0,SSE,6.9,-,N/A,,Clear,160,2014-01-11 13:54:00
4:54 AM,63.0,57.9,84,29.91,10.0,South,3.5,-,N/A,,Clear,190,2014-01-11 14:54:00
5:54 AM,64.0,60.1,87,29.91,10.0,SW,4.6,-,N/A,,Clear,220,2014-01-11 15:54:00
6:54 AM,64.0,60.1,87,29.92,10.0,South,5.8,-,N/A,,Clear,180,2014-01-11 16:54:00
7:54 AM,66.2,62.6,88,29.93,10.0,WSW,5.8,-,N/A,,Clear,240,2014-01-11 17:54:00
8:54 AM,75.0,64.0,69,29.96,10.0,Calm,Calm,-,N/A,,Clear,0,2014-01-11 18:54:00
9:54 AM,79.0,64.9,62,29.99,10.0,East,4.6,-,N/A,,Partly Cloudy,80,2014-01-11 19:54:00
10:54 AM,80.1,68.0,67,29.99,10.0,NE,6.9,-,N/A,,Scattered Clouds,40,2014-01-11 20:54:00
11:54 AM,81.0,69.1,67,29.97,10.0,NE,5.8,-,N/A,,Scattered Clouds,40,2014-01-11 21:54:00
12:54 PM,82.0,70.0,67,29.95,10.0,NNE,6.9,-,N/A,,Scattered Clouds,20,2014-01-11 22:54:00
1:54 PM,81.0,70.0,69,29.93,10.0,NNE,10.4,-,N/A,,Scattered Clouds,30,2014-01-11 23:54:00
2:54 PM,81.0,68.0,65,29.94,10.0,NE,11.5,-,N/A,,Scattered Clouds,50,2014-01-12 00:54:00
3:54 PM,81.0,66.9,62,29.93,10.0,North,6.9,-,N/A,,Scattered Clouds,360,2014-01-12 01:54:00
4:54 PM,78.1,66.9,68,29.93,10.0,North,8.1,-,N/A,,Partly Cloudy,360,2014-01-12 02:54:00
5:54 PM,77.0,66.9,71,29.94,10.0,NNW,6.9,-,N/A,,Partly Cloudy,340,2014-01-12 03:54:00
6:54 PM,75.9,66.0,71,29.96,10.0,NNW,5.8,-,N/A,,Clear,340,2014-01-12 04:54:00
7:54 PM,77.0,66.9,71,29.99,10.0,North,6.9,-,N/A,,Scattered Clouds,350,2014-01-12 05:54:00
8:54 PM,75.9,66.0,71,29.99,10.0,NNW,6.9,-,N/A,,Mostly Cloudy,330,2014-01-12 06:54:00
9:54 PM,75.0,68.0,79,29.99,10.0,NE,4.6,-,N/A,,Scattered Clouds,40,2014-01-12 07:54:00
10:54 PM,75.9,68.0,76,29.98,10.0,North,9.2,-,N/A,,Clear,350,2014-01-12 08:54:00
11:54 PM,69.1,63.0,81,29.98,10.0,Calm,Calm,-,N/A,,Partly Cloudy,0,2014-01-12 09:54:00